| time (UTC) | temp F | wind direction | speed MPH | gust MPH | rain 1hr in | rain 24hr in | rain mn in | humidity % | barometer mb |
| 20260905133048 | 80 | 132 | 4.0 | 6.0 | 0.00 | 0.00 | 0.00 | 88 | 1015.6 |
| 20260905132601 | 79 | 126 | 4.0 | 6.0 | 0.00 | 0.00 | 0.00 | 88 | 1015.7 |
| 20260905132051 | 79 | 129 | 4.0 | 6.0 | 0.00 | 0.00 | 0.00 | 88 | 1015.7 |
| 20260905131559 | 79 | 128 | 4.0 | 6.0 | 0.00 | 0.00 | 0.00 | 88 | 1015.5 |
| 20260905130636 | 79 | 133 | 4.0 | 6.0 | 0.00 | 0.00 | 0.00 | 88 | 1015.5 |
| 20260905130133 | 79 | 118 | 4.0 | 5.0 | 0.00 | 0.00 | 0.00 | 88 | 1015.4 |
| 20260905125541 | 79 | 115 | 4.0 | 6.0 | 0.00 | 0.00 | 0.00 | 88 | 1015.4 |
| 20260905125159 | 79 | 114 | 4.0 | 6.0 | 0.00 | 0.00 | 0.00 | 88 | 1015.2 |
| 20260905124552 | 79 | 114 | 4.0 | 5.0 | 0.00 | 0.00 | 0.00 | 88 | 1015.1 |
| 20260905124050 | 79 | 114 | 4.0 | 5.0 | 0.00 | 0.00 | 0.00 | 88 | 1014.9 |
| 20260905123609 | 79 | 114 | 4.0 | 5.0 | 0.00 | 0.00 | 0.00 | 88 | 1014.9 |
| 20260905123108 | 79 | 114 | 4.0 | 5.0 | 0.00 | 0.00 | 0.00 | 88 | 1015.1 |
| 20260905122051 | 79 | 116 | 4.0 | 5.0 | 0.00 | 0.00 | 0.00 | 88 | 1015.0 |
| 20260905121605 | 79 | 119 | 5.0 | 6.0 | 0.00 | 0.00 | 0.00 | 88 | 1015.0 |
| 20260905121120 | 79 | 107 | 5.0 | 6.0 | 0.00 | 0.00 | 0.00 | 88 | 1014.9 |
| 20260905120619 | 80 | 134 | 4.0 | 6.0 | 0.00 | 0.00 | 0.00 | 88 | 1014.8 |
| 20260905120111 | 80 | 141 | 4.0 | 6.0 | 0.00 | 0.00 | 0.00 | 88 | 1015.0 |
| 20260905115045 | 80 | 178 | 5.0 | 6.0 | 0.00 | 0.00 | 0.00 | 88 | 1014.8 |
| 20260905114558 | 80 | 176 | 5.0 | 6.0 | 0.00 | 0.00 | 0.00 | 87 | 1014.7 |
| 20260905114112 | 80 | 172 | 5.0 | 6.0 | 0.00 | 0.00 | 0.00 | 87 | 1014.8 |
| 20260905113611 | 80 | 185 | 4.0 | 6.0 | 0.00 | 0.00 | 0.00 | 87 | 1014.9 |
| 20260905113049 | 80 | 197 | 3.0 | 7.0 | 0.00 | 0.00 | 0.00 | 87 | 1014.9 |
| 20260905112557 | 80 | 201 | 5.0 | 7.0 | 0.00 | 0.00 | 0.00 | 87 | 1014.8 |
| 20260905112158 | 80 | 176 | 4.0 | 6.0 | 0.00 | 0.00 | 0.00 | 87 | 1014.8 |
| 20260905111634 | 80 | 177 | 4.0 | 6.0 | 0.00 | 0.00 | 0.00 | 87 | 1014.7 |
| 20260905111113 | 80 | 170 | 5.0 | 6.0 | 0.00 | 0.00 | 0.00 | 87 | 1014.7 |
| 20260905110545 | 80 | 174 | 5.0 | 6.0 | 0.00 | 0.00 | 0.00 | 87 | 1014.8 |
| 20260905110100 | 80 | 182 | 4.0 | 6.0 | 0.00 | 0.00 | 0.00 | 87 | 1014.8 |
| 20260905105603 | 80 | 192 | 4.0 | 7.0 | 0.00 | 0.00 | 0.00 | 87 | 1014.7 |
| 20260905105121 | 80 | 201 | 5.0 | 7.0 | 0.00 | 0.00 | 0.00 | 87 | 1014.6 |
| 20260905104621 | 80 | 160 | 3.0 | 5.0 | 0.00 | 0.00 | 0.00 | 87 | 1014.6 |
| 20260905104135 | 79 | 105 | 4.0 | 5.0 | 0.00 | 0.00 | 0.00 | 87 | 1014.5 |
| 20260905103633 | 79 | 102 | 4.0 | 6.0 | 0.00 | 0.00 | 0.00 | 87 | 1014.5 |
| 20260905103146 | 79 | 101 | 5.0 | 6.0 | 0.00 | 0.00 | 0.00 | 87 | 1014.5 |
| 20260905102626 | 79 | 109 | 4.0 | 5.0 | 0.00 | 0.00 | 0.00 | 87 | 1014.4 |
| 20260905102040 | 79 | 109 | 3.0 | 5.0 | 0.00 | 0.00 | 0.00 | 87 | 1014.4 |
| 20260905101624 | 79 | 109 | 3.0 | 5.0 | 0.00 | 0.00 | 0.00 | 87 | 1014.4 |
| 20260905101122 | 79 | 109 | 3.0 | 5.0 | 0.00 | 0.00 | 0.00 | 87 | 1014.4 |
| 20260905100622 | 79 | 109 | 4.0 | 5.0 | 0.00 | 0.00 | 0.00 | 87 | 1014.5 |
| 20260905100133 | 79 | 109 | 5.0 | 6.0 | 0.00 | 0.00 | 0.00 | 87 | 1014.5 |
| 20260905095540 | 79 | 109 | 3.0 | 5.0 | 0.00 | 0.00 | 0.00 | 86 | 1014.4 |
| 20260905095157 | 79 | 109 | 3.0 | 5.0 | 0.00 | 0.00 | 0.00 | 86 | 1014.4 |
| 20260905094650 | 79 | 109 | 4.0 | 5.0 | 0.00 | 0.00 | 0.00 | 86 | 1014.5 |
| 20260905094044 | 80 | 109 | 4.0 | 5.0 | 0.00 | 0.00 | 0.00 | 86 | 1014.3 |
| 20260905093557 | 80 | 109 | 4.0 | 6.0 | 0.00 | 0.00 | 0.00 | 86 | 1014.4 |
| 20260905093055 | 80 | 109 | 5.0 | 6.0 | 0.00 | 0.00 | 0.00 | 86 | 1014.4 |
| 20260905092550 | 80 | 118 | 5.0 | 6.0 | 0.00 | 0.00 | 0.00 | 86 | 1014.5 |
| 20260905092149 | 80 | 118 | 4.0 | 6.0 | 0.00 | 0.00 | 0.00 | 86 | 1014.4 |
| 20260905091621 | 80 | 116 | 4.0 | 5.0 | 0.00 | 0.00 | 0.00 | 86 | 1014.5 |
| 20260905091047 | 80 | 115 | 4.0 | 5.0 | 0.00 | 0.00 | 0.00 | 86 | 1014.6 |
| 20260905090550 | 80 | 118 | 4.0 | 8.0 | 0.00 | 0.00 | 0.00 | 86 | 1014.6 |
| 20260905090100 | 81 | 118 | 5.0 | 9.0 | 0.00 | 0.00 | 0.00 | 86 | 1014.4 |
| 20260905085118 | 81 | 150 | 6.0 | 9.0 | 0.00 | 0.00 | 0.00 | 86 | 1014.5 |
| 20260905084605 | 81 | 169 | 6.0 | 9.0 | 0.00 | 0.00 | 0.00 | 85 | 1014.4 |
| 20260905084119 | 81 | 163 | 7.0 | 8.0 | 0.00 | 0.00 | 0.00 | 85 | 1014.4 |
| 20260905083634 | 81 | 167 | 6.0 | 9.0 | 0.00 | 0.00 | 0.00 | 85 | 1014.6 |
| 20260905083112 | 81 | 159 | 6.0 | 8.0 | 0.00 | 0.00 | 0.00 | 85 | 1014.6 |
| 20260905082609 | 81 | 161 | 6.0 | 8.0 | 0.00 | 0.00 | 0.00 | 85 | 1014.6 |
| 20260905081655 | 81 | 168 | 5.0 | 9.0 | 0.00 | 0.00 | 0.00 | 85 | 1014.8 |
| 20260905081040 | 81 | 139 | 7.0 | 8.0 | 0.00 | 0.00 | 0.00 | 85 | 1014.9 |
| 20260905080553 | 81 | 136 | 6.0 | 9.0 | 0.00 | 0.00 | 0.00 | 85 | 1014.9 |
| 20260905080110 | 81 | 157 | 7.0 | 9.0 | 0.00 | 0.00 | 0.00 | 84 | 1014.8 |
| 20260905075601 | 81 | 143 | 6.0 | 9.0 | 0.00 | 0.00 | 0.00 | 84 | 1014.8 |
| 20260905075102 | 81 | 149 | 7.0 | 13.0 | 0.00 | 0.00 | 0.00 | 84 | 1014.8 |
| 20260905074558 | 81 | 128 | 9.0 | 13.0 | 0.00 | 0.00 | 0.00 | 84 | 1014.8 |
| 20260905074103 | 81 | 152 | 8.0 | 11.0 | 0.00 | 0.00 | 0.00 | 84 | 1014.9 |
| 20260905073542 | 81 | 150 | 8.0 | 10.0 | 0.00 | 0.00 | 0.00 | 83 | 1015.0 |
| 20260905073041 | 81 | 170 | 8.0 | 12.0 | 0.00 | 0.00 | 0.00 | 83 | 1015.1 |
| 20260905072622 | 81 | 173 | 9.0 | 13.0 | 0.00 | 0.00 | 0.00 | 83 | 1015.2 |
| 20260905072121 | 81 | 159 | 10.0 | 13.0 | 0.00 | 0.00 | 0.00 | 83 | 1015.2 |
| 20260905071634 | 81 | 155 | 9.0 | 11.0 | 0.00 | 0.00 | 0.00 | 83 | 1015.1 |
| 20260905071138 | 81 | 181 | 9.0 | 11.0 | 0.00 | 0.00 | 0.00 | 83 | 1015.2 |
| 20260905070617 | 81 | 156 | 7.0 | 9.0 | 0.00 | 0.00 | 0.00 | 82 | 1015.2 |
| 20260905070051 | 81 | 182 | 8.0 | 10.0 | 0.00 | 0.00 | 0.00 | 82 | 1015.3 |
| 20260905065547 | 81 | 158 | 8.0 | 10.0 | 0.00 | 0.00 | 0.00 | 81 | 1015.3 |
| 20260905065042 | 82 | 153 | 7.0 | 10.0 | 0.00 | 0.00 | 0.00 | 82 | 1015.4 |
| 20260905064558 | 82 | 151 | 7.0 | 10.0 | 0.00 | 0.00 | 0.00 | 81 | 1015.4 |
| 20260905064052 | 82 | 166 | 7.0 | 9.0 | 0.00 | 0.00 | 0.00 | 81 | 1015.4 |
| 20260905063549 | 82 | 180 | 7.0 | 10.0 | 0.00 | 0.00 | 0.00 | 81 | 1015.3 |
| 20260905063044 | 82 | 161 | 7.0 | 11.0 | 0.00 | 0.00 | 0.00 | 81 | 1015.3 |
| 20260905062540 | 82 | 151 | 9.0 | 12.0 | 0.00 | 0.00 | 0.00 | 81 | 1015.3 |
| 20260905062055 | 82 | 150 | 9.0 | 12.0 | 0.00 | 0.00 | 0.00 | 80 | 1015.3 |
| 20260905061550 | 82 | 141 | 10.0 | 13.0 | 0.00 | 0.00 | 0.00 | 80 | 1015.4 |
| 20260905061046 | 82 | 143 | 10.0 | 12.0 | 0.00 | 0.00 | 0.00 | 80 | 1015.4 |
| 20260905060546 | 82 | 151 | 9.0 | 12.0 | 0.00 | 0.00 | 0.00 | 80 | 1015.4 |
| 20260905060040 | 82 | 157 | 9.0 | 12.0 | 0.00 | 0.00 | 0.00 | 80 | 1015.4 |
| 20260905055556 | 82 | 155 | 10.0 | 12.0 | 0.00 | 0.00 | 0.00 | 79 | 1015.3 |
| 20260905055111 | 82 | 149 | 10.0 | 14.0 | 0.00 | 0.00 | 0.00 | 79 | 1015.2 |
| 20260905054547 | 82 | 139 | 11.0 | 14.0 | 0.00 | 0.00 | 0.00 | 79 | 1015.3 |
| 20260905054103 | 82 | 149 | 10.0 | 13.0 | 0.00 | 0.00 | 0.00 | 79 | 1015.2 |
| 20260905053558 | 83 | 143 | 10.0 | 13.0 | 0.00 | 0.00 | 0.00 | 79 | 1015.3 |
| 20260905053053 | 82 | 170 | 10.0 | 14.0 | 0.00 | 0.00 | 0.00 | 78 | 1015.3 |
| 20260905052550 | 82 | 142 | 10.0 | 15.0 | 0.00 | 0.00 | 0.00 | 78 | 1015.1 |
| 20260905052045 | 82 | 136 | 10.0 | 15.0 | 0.00 | 0.00 | 0.00 | 78 | 1015.2 |
| 20260905051541 | 82 | 124 | 10.0 | 14.0 | 0.00 | 0.00 | 0.00 | 78 | 1015.1 |
| 20260905051056 | 82 | 128 | 10.0 | 12.0 | 0.00 | 0.00 | 0.00 | 78 | 1015.1 |
| 20260905050552 | 82 | 123 | 9.0 | 13.0 | 0.00 | 0.00 | 0.00 | 77 | 1015.3 |
| 20260905050047 | 82 | 106 | 9.0 | 12.0 | 0.00 | 0.00 | 0.00 | 77 | 1015.3 |
| 20260905045614 | 83 | 129 | 10.0 | 12.0 | 0.00 | 0.00 | 0.00 | 77 | 1015.4 |
| 20260905045133 | 83 | 145 | 9.0 | 12.0 | 0.00 | 0.00 | 0.00 | 77 | 1015.4 |
| 20260905044656 | 83 | 157 | 9.0 | 12.0 | 0.00 | 0.00 | 0.00 | 77 | 1015.4 |
| 20260905044048 | 83 | 147 | 9.0 | 12.0 | 0.00 | 0.00 | 0.00 | 77 | 1015.4 |
| 20260905043547 | 83 | 122 | 9.0 | 12.0 | 0.00 | 0.00 | 0.00 | 77 | 1015.4 |
| 20260905043046 | 83 | 134 | 8.0 | 10.0 | 0.00 | 0.00 | 0.00 | 77 | 1015.4 |
| 20260905042633 | 83 | 133 | 7.0 | 9.0 | 0.00 | 0.00 | 0.00 | 76 | 1015.4 |
| 20260905042111 | 83 | 122 | 7.0 | 11.0 | 0.00 | 0.00 | 0.00 | 76 | 1015.4 |
| 20260905041051 | 83 | 134 | 6.0 | 11.0 | 0.00 | 0.00 | 0.00 | 75 | 1015.4 |
| 20260905040604 | 83 | 116 | 8.0 | 11.0 | 0.00 | 0.00 | 0.00 | 75 | 1015.3 |
| 20260905040049 | 83 | 134 | 7.0 | 9.0 | 0.00 | 0.00 | 0.00 | 74 | 1015.2 |
| 20260905035608 | 83 | 132 | 7.0 | 9.0 | 0.00 | 0.00 | 0.00 | 75 | 1015.2 |
| 20260905034548 | 83 | 113 | 7.0 | 10.0 | 0.00 | 0.00 | 0.00 | 74 | 1015.3 |
| 20260905034152 | 83 | 124 | 7.0 | 10.0 | 0.00 | 0.00 | 0.00 | 74 | 1015.1 |
| 20260905033627 | 83 | 114 | 8.0 | 10.0 | 0.00 | 0.00 | 0.00 | 73 | 1015.2 |
| 20260905033125 | 84 | 122 | 7.0 | 11.0 | 0.00 | 0.00 | 0.00 | 73 | 1015.2 |
| 20260905032624 | 84 | 120 | 8.0 | 11.0 | 0.00 | 0.00 | 0.00 | 72 | 1015.1 |
| 20260905032116 | 84 | 118 | 7.0 | 11.0 | 0.00 | 0.00 | 0.00 | 72 | 1015.2 |
| 20260905031610 | 84 | 122 | 7.0 | 11.0 | 0.00 | 0.00 | 0.00 | 72 | 1015.1 |
| 20260905030634 | 84 | 128 | 9.0 | 12.0 | 0.00 | 0.00 | 0.00 | 72 | 1015.1 |
| 20260905030127 | 84 | 113 | 9.0 | 13.0 | 0.00 | 0.00 | 0.00 | 72 | 1015.1 |
| 20260905025637 | 84 | 115 | 10.0 | 13.0 | 0.00 | 0.00 | 0.00 | 71 | 1014.9 |
| 20260905025136 | 84 | 114 | 10.0 | 13.0 | 0.00 | 0.00 | 0.00 | 70 | 1014.9 |
| 20260905024635 | 84 | 121 | 9.0 | 13.0 | 0.00 | 0.00 | 0.00 | 69 | 1014.8 |
| 20260905024138 | 84 | 124 | 8.0 | 9.0 | 0.00 | 0.00 | 0.00 | 69 | 1014.7 |
| 20260905023640 | 84 | 122 | 8.0 | 10.0 | 0.00 | 0.00 | 0.00 | 69 | 1014.6 |
| 20260905022641 | 85 | 120 | 6.0 | 9.0 | 0.00 | 0.00 | 0.00 | 69 | 1014.3 |
| 20260905022121 | 85 | 117 | 7.0 | 9.0 | 0.00 | 0.00 | 0.00 | 69 | 1014.3 |
| 20260905021619 | 85 | 128 | 5.0 | 7.0 | 0.00 | 0.00 | 0.00 | 68 | 1014.4 |
| 20260905021114 | 85 | 118 | 6.0 | 8.0 | 0.00 | 0.00 | 0.00 | 68 | 1014.4 |
| 20260905020606 | 85 | 121 | 5.0 | 8.0 | 0.00 | 0.00 | 0.00 | 68 | 1014.4 |
| 20260905020103 | 85 | 118 | 6.0 | 8.0 | 0.00 | 0.00 | 0.00 | 68 | 1014.3 |
| 20260905015602 | 85 | 123 | 7.0 | 9.0 | 0.00 | 0.00 | 0.00 | 68 | 1014.2 |
| 20260905015046 | 85 | 128 | 7.0 | 9.0 | 0.00 | 0.00 | 0.00 | 67 | 1014.3 |
| 20260905014550 | 85 | 134 | 6.0 | 8.0 | 0.00 | 0.00 | 0.00 | 67 | 1014.4 |
| 20260905014135 | 85 | 128 | 6.0 | 8.0 | 0.00 | 0.00 | 0.00 | 66 | 1014.4 |
| 20260905013628 | 85 | 124 | 5.0 | 7.0 | 0.00 | 0.00 | 0.00 | 67 | 1014.4 |
| 20260905013059 | 86 | 136 | 5.0 | 8.0 | 0.00 | 0.00 | 0.00 | 67 | 1014.4 |
| 20260905012540 | 86 | 122 | 5.0 | 9.0 | 0.00 | 0.00 | 0.00 | 66 | 1014.4 |
| 20260905012054 | 86 | 113 | 6.0 | 9.0 | 0.00 | 0.00 | 0.00 | 66 | 1014.2 |
| 20260905011724 | 86 | 109 | 8.0 | 10.0 | 0.00 | 0.00 | 0.00 | 66 | 1014.1 |
| 20260905011109 | 86 | 117 | 7.0 | 11.0 | 0.00 | 0.00 | 0.00 | 67 | 1013.9 |
| 20260905010136 | 86 | 106 | 7.0 | 12.0 | 0.00 | 0.00 | 0.00 | 65 | 1013.9 |
| 20260905005646 | 87 | 114 | 9.0 | 12.0 | 0.00 | 0.00 | 0.00 | 64 | 1014.0 |
| 20260905005110 | 87 | 123 | 8.0 | 11.0 | 0.00 | 0.00 | 0.00 | 64 | 1014.0 |
| 20260905004626 | 87 | 116 | 8.0 | 11.0 | 0.00 | 0.00 | 0.00 | 64 | 1013.9 |
| 20260905004122 | 87 | 110 | 8.0 | 13.0 | 0.00 | 0.00 | 0.00 | 64 | 1014.0 |
| 20260905003615 | 88 | 114 | 9.0 | 18.0 | 0.00 | 0.00 | 0.00 | 64 | 1014.0 |
| 20260905003133 | 88 | 123 | 12.0 | 18.0 | 0.00 | 0.00 | 0.00 | 63 | 1013.8 |
| 20260905002541 | 89 | 134 | 9.0 | 13.0 | 0.00 | 0.00 | 0.00 | 61 | 1013.8 |
| 20260905002144 | 89 | 140 | 10.0 | 13.0 | 0.00 | 0.00 | 0.00 | 58 | 1013.5 |
| 20260905001622 | 89 | 157 | 7.0 | 11.0 | 0.00 | 0.00 | 0.00 | 58 | 1013.4 |
| 20260905001120 | 89 | 135 | 9.0 | 11.0 | 0.00 | 0.00 | 0.00 | 57 | 1013.4 |
| 20260905000638 | 89 | 153 | 7.0 | 12.0 | 0.00 | 0.00 | 0.00 | 60 | 1013.3 |
| 20260905000048 | 89 | 153 | 10.0 | 13.0 | 0.00 | 0.00 | 0.00 | 56 | 1013.3 |
| 20260904235611 | 90 | 149 | 9.0 | 13.0 | 0.00 | 0.00 | 0.00 | 55 | 1013.2 |
| 20260904235124 | 90 | 149 | 10.0 | 13.0 | 0.00 | 0.00 | 0.00 | 53 | 1013.2 |
| 20260904234631 | 90 | 141 | 12.0 | 13.0 | 0.00 | 0.00 | 0.00 | 52 | 1013.2 |
| 20260904234125 | 90 | 125 | 9.0 | 12.0 | 0.00 | 0.00 | 0.00 | 51 | 1013.1 |
| 20260904233636 | 90 | 124 | 9.0 | 14.0 | 0.00 | 0.00 | 0.00 | 52 | 1013.1 |
| 20260904233053 | 90 | 116 | 9.0 | 13.0 | 0.00 | 0.00 | 0.00 | 53 | 1013.1 |
| 20260904232606 | 89 | 129 | 7.0 | 15.0 | 0.00 | 0.00 | 0.00 | 54 | 1013.1 |
| 20260904232104 | 89 | 130 | 11.0 | 16.0 | 0.00 | 0.00 | 0.00 | 55 | 1013.2 |
| 20260904231539 | 89 | 143 | 7.0 | 16.0 | 0.00 | 0.00 | 0.00 | 58 | 1013.1 |
| 20260904231058 | 89 | 124 | 11.0 | 16.0 | 0.00 | 0.00 | 0.00 | 59 | 1013.2 |
| 20260904230556 | 89 | 162 | 10.0 | 14.0 | 0.00 | 0.00 | 0.00 | 60 | 1013.2 |
| 20260904230040 | 89 | 167 | 9.0 | 14.0 | 0.00 | 0.00 | 0.00 | 61 | 1013.3 |
| 20260904225645 | 89 | 142 | 10.0 | 14.0 | 0.00 | 0.00 | 0.00 | 62 | 1013.2 |
| 20260904224633 | 88 | 134 | 8.0 | 16.0 | 0.00 | 0.00 | 0.00 | 65 | 1013.5 |
| 20260904224131 | 88 | 165 | 10.0 | 16.0 | 0.00 | 0.00 | 0.00 | 67 | 1013.5 |
| 20260904223539 | 88 | 174 | 9.0 | 13.0 | 0.00 | 0.00 | 0.00 | 64 | 1013.6 |
| 20260904223136 | 88 | 134 | 5.0 | 12.0 | 0.00 | 0.00 | 0.00 | 64 | 1013.7 |
| 20260904222547 | 88 | 127 | 8.0 | 12.0 | 0.00 | 0.00 | 0.00 | 64 | 1013.7 |
| 20260904222052 | 88 | 186 | 6.0 | 14.0 | 0.00 | 0.00 | 0.00 | 65 | 1013.7 |
| 20260904221603 | 88 | 165 | 9.0 | 13.0 | 0.00 | 0.00 | 0.00 | 66 | 1013.7 |
| 20260904221055 | 88 | 122 | 9.0 | 13.0 | 0.00 | 0.00 | 0.00 | 65 | 1013.6 |
| 20260904220654 | 88 | 141 | 9.0 | 13.0 | 0.00 | 0.00 | 0.00 | 66 | 1013.6 |
| 20260904220132 | 88 | 132 | 10.0 | 14.0 | 0.00 | 0.00 | 0.00 | 67 | 1013.8 |
| 20260904215625 | 88 | 128 | 11.0 | 14.0 | 0.00 | 0.00 | 0.00 | 66 | 1013.7 |
| 20260904215118 | 88 | 113 | 10.0 | 13.0 | 0.00 | 0.00 | 0.00 | 66 | 1013.7 |
| 20260904214132 | 88 | 145 | 8.0 | 13.0 | 0.00 | 0.00 | 0.00 | 67 | 1013.9 |
| 20260904213623 | 87 | 113 | 8.0 | 13.0 | 0.00 | 0.00 | 0.00 | 67 | 1014.0 |
| 20260904212637 | 87 | 154 | 7.0 | 10.0 | 0.00 | 0.00 | 0.00 | 68 | 1014.2 |
| 20260904212129 | 88 | 158 | 8.0 | 10.0 | 0.00 | 0.00 | 0.00 | 67 | 1014.3 |
| 20260904211606 | 88 | 131 | 7.0 | 12.0 | 0.00 | 0.00 | 0.00 | 67 | 1014.4 |
| 20260904211118 | 88 | 128 | 11.0 | 13.0 | 0.00 | 0.00 | 0.00 | 66 | 1014.4 |
| 20260904210539 | 88 | 149 | 10.0 | 14.0 | 0.00 | 0.00 | 0.00 | 68 | 1014.3 |
| 20260904210054 | 88 | 129 | 9.0 | 16.0 | 0.00 | 0.00 | 0.00 | 66 | 1014.5 |
| 20260904205551 | 88 | 151 | 13.0 | 15.0 | 0.00 | 0.00 | 0.00 | 67 | 1014.4 |
| 20260904205111 | 87 | 154 | 8.0 | 15.0 | 0.00 | 0.00 | 0.00 | 66 | 1014.5 |
| 20260904204611 | 88 | 143 | 12.0 | 15.0 | 0.00 | 0.00 | 0.00 | 67 | 1014.5 |
| 20260904203635 | 88 | 155 | 10.0 | 14.0 | 0.00 | 0.00 | 0.00 | 67 | 1014.7 |
| 20260904203135 | 87 | 143 | 11.0 | 14.0 | 0.00 | 0.00 | 0.00 | 66 | 1014.8 |
| 20260904202612 | 87 | 155 | 9.0 | 15.0 | 0.00 | 0.00 | 0.00 | 65 | 1014.9 |
| 20260904202130 | 87 | 145 | 13.0 | 15.0 | 0.00 | 0.00 | 0.00 | 68 | 1014.8 |
| 20260904201614 | 87 | 162 | 7.0 | 13.0 | 0.00 | 0.00 | 0.00 | 67 | 1014.8 |
| 20260904201111 | 87 | 155 | 11.0 | 13.0 | 0.00 | 0.00 | 0.00 | 67 | 1014.8 |
| 20260904200048 | 87 | 134 | 8.0 | 11.0 | 0.00 | 0.00 | 0.00 | 69 | 1014.9 |
| 20260904195602 | 87 | 114 | 9.0 | 11.0 | 0.00 | 0.00 | 0.00 | 67 | 1015.0 |
| 20260904195100 | 87 | 86 | 4.0 | 11.0 | 0.00 | 0.00 | 0.00 | 69 | 1015.1 |
| 20260904194629 | 87 | 145 | 9.0 | 11.0 | 0.00 | 0.00 | 0.00 | 69 | 1015.0 |
| 20260904194124 | 87 | 160 | 8.0 | 13.0 | 0.00 | 0.00 | 0.00 | 70 | 1015.1 |
| 20260904193623 | 87 | 113 | 9.0 | 13.0 | 0.00 | 0.00 | 0.00 | 69 | 1015.1 |
| 20260904193120 | 86 | 103 | 7.0 | 12.0 | 0.00 | 0.00 | 0.00 | 69 | 1015.1 |
| 20260904192615 | 86 | 138 | 9.0 | 12.0 | 0.00 | 0.00 | 0.00 | 70 | 1015.1 |
| 20260904192113 | 86 | 177 | 6.0 | 14.0 | 0.00 | 0.00 | 0.00 | 70 | 1015.2 |
| 20260904191612 | 86 | 178 | 5.0 | 10.0 | 0.00 | 0.00 | 0.00 | 70 | 1015.2 |
| 20260904191131 | 86 | 168 | 9.0 | 11.0 | 0.00 | 0.00 | 0.00 | 71 | 1015.2 |
| 20260904190539 | 86 | 176 | 8.0 | 13.0 | 0.00 | 0.00 | 0.00 | 69 | 1015.3 |
| 20260904190137 | 86 | 169 | 9.0 | 13.0 | 0.00 | 0.00 | 0.00 | 70 | 1015.4 |
| 20260904185133 | 85 | 151 | 10.0 | 12.0 | 0.00 | 0.00 | 0.00 | 72 | 1015.6 |
| 20260904184540 | 85 | 157 | 6.0 | 9.0 | 0.00 | 0.00 | 0.00 | 74 | 1015.6 |
| 20260904184044 | 85 | 161 | 5.0 | 10.0 | 0.00 | 0.00 | 0.00 | 74 | 1015.7 |
| 20260904183632 | 85 | 184 | 6.0 | 10.0 | 0.00 | 0.00 | 0.00 | 74 | 1015.6 |
| 20260904182635 | 85 | 203 | 9.0 | 12.0 | 0.00 | 0.00 | 0.00 | 75 | 1015.8 |
| 20260904182131 | 85 | 174 | 7.0 | 12.0 | 0.00 | 0.00 | 0.00 | 75 | 1015.8 |
| 20260904181609 | 84 | 195 | 9.0 | 12.0 | 0.00 | 0.00 | 0.00 | 75 | 1015.8 |
| 20260904181046 | 84 | 189 | 7.0 | 11.0 | 0.00 | 0.00 | 0.00 | 76 | 1015.8 |
| 20260904180549 | 84 | 206 | 5.0 | 9.0 | 0.00 | 0.00 | 0.00 | 77 | 1016.0 |
| 20260904180104 | 84 | 202 | 5.0 | 10.0 | 0.00 | 0.00 | 0.00 | 77 | 1016.0 |
| 20260904175602 | 84 | 165 | 8.0 | 10.0 | 0.00 | 0.00 | 0.00 | 77 | 1016.1 |
| 20260904175115 | 84 | 195 | 8.0 | 11.0 | 0.00 | 0.00 | 0.00 | 78 | 1016.0 |
| 20260904174628 | 84 | 198 | 9.0 | 14.0 | 0.00 | 0.00 | 0.00 | 77 | 1016.0 |
| 20260904174041 | 84 | 199 | 10.0 | 14.0 | 0.00 | 0.00 | 0.00 | 79 | 1016.1 |
| 20260904173554 | 84 | 192 | 8.0 | 12.0 | 0.00 | 0.00 | 0.00 | 80 | 1016.1 |
| 20260904173110 | 83 | 188 | 8.0 | 11.0 | 0.00 | 0.00 | 0.00 | 79 | 1016.3 |
| 20260904172609 | 83 | 161 | 10.0 | 12.0 | 0.00 | 0.00 | 0.00 | 79 | 1016.3 |
| 20260904172126 | 83 | 156 | 10.0 | 12.0 | 0.00 | 0.00 | 0.00 | 80 | 1016.2 |
| 20260904171636 | 83 | 176 | 6.0 | 10.0 | 0.00 | 0.00 | 0.00 | 81 | 1016.2 |
| 20260904171038 | 83 | 186 | 8.0 | 11.0 | 0.00 | 0.00 | 0.00 | 82 | 1016.3 |
| 20260904170547 | 83 | 190 | 8.0 | 11.0 | 0.00 | 0.00 | 0.00 | 82 | 1016.3 |
| 20260904165615 | 82 | 171 | 8.0 | 11.0 | 0.00 | 0.00 | 0.00 | 83 | 1016.3 |
| 20260904165110 | 82 | 177 | 8.0 | 11.0 | 0.00 | 0.00 | 0.00 | 83 | 1016.3 |
| 20260904164608 | 82 | 175 | 8.0 | 11.0 | 0.00 | 0.00 | 0.00 | 83 | 1016.3 |
| 20260904164045 | 82 | 167 | 8.0 | 10.0 | 0.00 | 0.00 | 0.00 | 84 | 1016.4 |
| 20260904163645 | 82 | 185 | 7.0 | 10.0 | 0.00 | 0.00 | 0.00 | 84 | 1016.4 |
| 20260904163119 | 81 | 143 | 6.0 | 10.0 | 0.00 | 0.00 | 0.00 | 85 | 1016.4 |
| 20260904162612 | 81 | 169 | 6.0 | 7.0 | 0.00 | 0.00 | 0.00 | 85 | 1016.4 |
| 20260904161636 | 81 | 156 | 6.0 | 9.0 | 0.00 | 0.00 | 0.00 | 85 | 1016.5 |
| 20260904161119 | 81 | 165 | 6.0 | 8.0 | 0.00 | 0.00 | 0.00 | 85 | 1016.4 |
| 20260904160611 | 81 | 170 | 5.0 | 6.0 | 0.00 | 0.00 | 0.00 | 85 | 1016.6 |
| 20260904160118 | 81 | 143 | 4.0 | 7.0 | 0.00 | 0.00 | 0.00 | 86 | 1016.7 |
| 20260904155611 | 81 | 131 | 4.0 | 7.0 | 0.00 | 0.00 | 0.00 | 86 | 1016.7 |
| 20260904154635 | 81 | 131 | 4.0 | 6.0 | 0.00 | 0.00 | 0.00 | 86 | 1016.8 |
| 20260904154127 | 81 | 128 | 3.0 | 6.0 | 0.00 | 0.00 | 0.00 | 86 | 1016.6 |
| 20260904153637 | 81 | 124 | 4.0 | 7.0 | 0.00 | 0.00 | 0.00 | 86 | 1016.7 |
| 20260904153131 | 80 | 138 | 2.0 | 7.0 | 0.00 | 0.00 | 0.00 | 86 | 1016.6 |
| 20260904152629 | 81 | 152 | 3.0 | 7.0 | 0.00 | 0.00 | 0.00 | 86 | 1016.5 |
| 20260904152136 | 80 | 174 | 3.0 | 8.0 | 0.00 | 0.00 | 0.00 | 86 | 1016.3 |
| 20260904151628 | 80 | 151 | 5.0 | 8.0 | 0.00 | 0.00 | 0.00 | 86 | 1016.2 |
| 20260904151123 | 80 | 168 | 5.0 | 7.0 | 0.00 | 0.00 | 0.00 | 87 | 1016.2 |
| 20260904150622 | 80 | 161 | 4.0 | 7.0 | 0.00 | 0.00 | 0.00 | 87 | 1016.2 |
| 20260904150117 | 80 | 171 | 5.0 | 8.0 | 0.00 | 0.00 | 0.00 | 87 | 1016.1 |
| 20260904145631 | 80 | 193 | 6.0 | 8.0 | 0.00 | 0.00 | 0.00 | 87 | 1016.3 |
| 20260904145043 | 80 | 174 | 7.0 | 8.0 | 0.00 | 0.00 | 0.00 | 87 | 1016.2 |
| 20260904144542 | 80 | 183 | 5.0 | 8.0 | 0.00 | 0.00 | 0.00 | 87 | 1016.2 |
| 20260904144055 | 80 | 184 | 6.0 | 9.0 | 0.00 | 0.00 | 0.00 | 87 | 1016.3 |
| 20260904143608 | 80 | 181 | 6.0 | 11.0 | 0.00 | 0.00 | 0.00 | 87 | 1016.4 |
| 20260904142550 | 80 | 159 | 6.0 | 11.0 | 0.00 | 0.00 | 0.00 | 88 | 1016.2 |
| 20260904142054 | 80 | 187 | 7.0 | 11.0 | 0.00 | 0.00 | 0.00 | 88 | 1016.2 |
| 20260904141608 | 80 | 159 | 7.0 | 11.0 | 0.00 | 0.00 | 0.00 | 88 | 1016.1 |
| 20260904141111 | 80 | 170 | 7.0 | 11.0 | 0.00 | 0.00 | 0.00 | 88 | 1016.1 |
| 20260904140608 | 80 | 180 | 9.0 | 13.0 | 0.00 | 0.00 | 0.00 | 88 | 1015.9 |
| 20260904135546 | 80 | 150 | 8.0 | 12.0 | 0.00 | 0.00 | 0.00 | 88 | 1015.9 |
| 20260904135111 | 80 | 149 | 8.0 | 13.0 | 0.00 | 0.00 | 0.00 | 88 | 1015.8 |
| 20260904134608 | 80 | 163 | 9.0 | 13.0 | 0.00 | 0.00 | 0.00 | 88 | 1015.8 |
| 20260904134126 | 80 | 195 | 10.0 | 12.0 | 0.00 | 0.00 | 0.00 | 88 | 1015.7 |